This is the latest recevied weather packets stored in our database for station/object N5COP-13. If no packets are shown the sender has not sent any weather packets the latest 1 day(s).
| Time | Temp. | Humidity | Pressure | Rain* | Wind** | Luminosity | Snow |
|---|---|---|---|---|---|---|---|
| 1778034702 | 11.67° C | 57% | 1010.9 hPa | 0 mm | - | 0 W/m² | - |
| 1778034399 | 11.67° C | 58% | 1010.6 hPa | 0 mm | - | 0 W/m² | - |
| 1778034096 | 11.67° C | 59% | 1010.5 hPa | 0 mm | - | 0 W/m² | - |
| 1778033188 | 11.67° C | 58% | 1011.3 hPa | 0 mm | - | 0 W/m² | - |
| 1778032886 | 12.22° C | 58% | 1010.8 hPa | 0 mm | - | 0 W/m² | - |
| 1778032583 | 12.78° C | 56% | 1010.4 hPa | 0 mm | - | 0 W/m² | - |
| 1778032280 | 12.78° C | 53% | 1010.5 hPa | 0 mm | - | 0 W/m² | - |
| 1778031978 | 13.33° C | 51% | 1010.5 hPa | 0 mm | - | 1 W/m² | - |
| 1778031673 | 13.33° C | 49% | 1010.2 hPa | 0 mm | - | 1 W/m² | - |
| 1778031372 | 13.89° C | 48% | 1010.6 hPa | 0 mm | - | 3 W/m² | - |
| 1778031068 | 13.89° C | 47% | 1010.3 hPa | 0 mm | - | 3 W/m² | - |
| 1778030764 | 13.89° C | 47% | 1010.4 hPa | 0 mm | - | 3 W/m² | - |
| 1778030159 | 14.44° C | 46% | 1009.8 hPa | 0 mm | - | 7 W/m² | - |
| 1778029854 | 14.44° C | 46% | 1009.8 hPa | 0 mm | - | 14 W/m² | - |
| 1778028942 | 15° C | 46% | 1009 hPa | 0 mm | - | 41 W/m² | - |
| 1778028032 | 15.56° C | 44% | 1008.7 hPa | 0 mm | - | 59 W/m² | - |
| 1778027728 | 15.56° C | 44% | 1008.6 hPa | 0 mm | - | 65 W/m² | - |
| 1778027424 | 15.56° C | 43% | 1008.9 hPa | 0 mm | - | 72 W/m² | - |
| 1778026816 | 16.67° C | 42% | 1008.5 hPa | 0 mm | - | 95 W/m² | - |
| 1778026513 | 16.67° C | 42% | 1008.3 hPa | 0 mm | - | 109 W/m² | - |
| 1778024091 | 17.78° C | 40% | 1008.4 hPa | 0 mm | - | 202 W/m² | - |
| 1778023183 | 17.78° C | 39% | 1008.6 hPa | 0 mm | - | 243 W/m² | - |
| 1778022880 | 17.78° C | 39% | 1008.5 hPa | 0 mm | - | 285 W/m² | - |
| 1778022276 | 17.78° C | 39% | 1008.6 hPa | 0 mm | - | 243 W/m² | - |
| 1778021365 | 17.78° C | 39% | 1009 hPa | 0 mm | - | 247 W/m² | - |
* Rain latest hour (hover to see other rain measurements)
** Current wind speed in m/s (hover to see current wind gust speed)